Location: Antioch Baptist Church
(32.6696°N, 85.7327°W)
Time: 21:18:38
(UTC+00:00)

CZ-2D R/B - Pass Details

Date: 14 July 2020
Orbit: 792 x 844 km, 98.7° (Epoch: 13 August)

Event Time Altitude Azimuth Distance (km) Brightness Sun altitude
Rises 07:27:38 0° 9° (N) 3,352 6.3 -30.8°
Reaches altitude 10° 07:29:59 10° 7° (N) 2,425 5.4 -30.6°
Enters shadow 07:34:25 58° 337° (NNW) 967 2.5 -30.2°
